Location: Larkspur
(54.4391°N, 113.7691°W)
Time: 08:32:23
(UTC+00:00)

CZ-4C DEB - Pass Details

Date: 24 May 2024
Orbit: 574 x 583 km, 97.8° (Epoch: 16 May)

Event Time Altitude Azimuth Distance (km) Brightness Sun altitude
Exits shadow 06:38:59 - 220° (SW) 2,128 ? -13.8°
Reaches altitude 10° 06:39:29 10° 224° (SW) 1,979 ? -13.8°
Maximum altitude 06:42:36 19° 270° (W) 1,473 ? -13.9°
Drops below altitude 10° 06:45:43 10° 317° (NW) 1,986 ? -14.0°
Sets 06:48:28 0° 335° (NNW) 2,893 ? -14.1°
